Upstream stations:
Downstream station:
SHEF ID: QUAO2 Spring River near Quapaw, OK
STATION TYPE:
Regulating: Stage = 20.00, Flow = 33676
PRECIP STAGE STAGE(2) RIV-FLOW BAT-LOAD
in ft ft cfs volt
Ccp-Rev Ccp-Rev Ccp-Rev Ccp-Rev Ccp-Rev
(US/Central)
06/29 00:00 0.00 6.78 6.83 742 11.94
06/29 01:00 0.00 6.77 6.83 734 11.93
06/29 02:00 0.00 6.77 6.83 734 11.91
06/29 03:00 0.00 6.77 6.83 734 11.81
06/29 04:00 0.00 6.77 6.83 734 11.89
06/29 05:00 0.00 6.77 6.83 734 11.79
06/29 06:00 0.00 6.77 6.83 734 11.75
06/29 07:00 0.00 6.76 6.83 727 11.75
06/29 08:00 0.00 6.76 6.83 727 11.81
06/29 09:00 0.00 6.76 6.82 727 12.13
06/29 10:00 0.00 6.76 6.82 727 12.38
06/29 11:00 0.00 6.76 6.81 727 12.36
06/29 12:00 0.00 6.76 6.81 727 12.76
06/29 13:00 0.00 6.76 6.81 727 12.63
06/29 14:00 0.00 6.76 6.79 727 12.42
06/29 15:00 0.00 6.75 6.80 719 12.40
06/29 16:00 0.00 6.75 6.79 719 12.65
06/29 17:00 0.00 6.75 6.78 719 12.34
06/29 18:00 0.00 6.74 6.78 712 12.58
06/29 19:00 0.00 6.75 6.78 719 12.27
06/29 20:00 0.00 6.74 6.78 712 12.06
06/29 21:00 0.00 6.73 6.77 704 11.90
06/29 22:00 0.00 6.73 6.78 704 11.83
06/29 23:00 0.00 6.73 6.78 704 11.84